Location: Krakow
(50.0830°N, 19.9170°E)
Time: 12:46:28
(UTC+01:00)

Vanguard 2 - Pass Details

Date: 12 December 2023
Orbit: 553 x 2919 km, 32.9° (Epoch: 24 February)

Event Time Altitude Azimuth Distance (km) Brightness Sun altitude
Rises 16:05:42 0° 188° (S) 5,942 12.7 -4.5°
Reaches altitude 10° 16:11:36 10° 170° (S) 5,301 12.1 -5.3°
Maximum altitude 16:20:21 17° 137° (SE) 5,058 11.5 -6.6°
Drops below altitude 10° 16:29:40 10° 105° (ESE) 5,745 11.5 -7.9°
Enters shadow 16:35:10 - 91° (E) 6,468 11.7 -8.7°
